When you browse on this site, cookies collect data to enhance your experience and personalize the content and advertising you see.
Visit our Privacy Policy to learn more. By continuing to use the site, you agree to this use of cookies and data.
  • en France
  • Liste des pays
  • À 7 jours
  • Température de l'eau
  • Carte météo
  • Widgets météo
  • user-avatar
    Se connecter

    Météo par heure à Townsville

    Ce jour, 14 Décembre, Samedi

    Heure Température Précipitation Vent Pression Humidité
    00:00 +27°C° 0 mm 3 m/s 750 mmHg 86%
    01:00 +27°C° 0 mm 3 m/s 750 mmHg 85%
    02:00 +26°C° 0 mm 3 m/s 750 mmHg 87%
    03:00 +26°C° 0 mm 3 m/s 750 mmHg 89%
    04:00 +26°C° 0 mm 2 m/s 750 mmHg 90%
    05:00 +27°C° 0 mm 2 m/s 750 mmHg 86%
    06:00 +27°C° 0 mm 2 m/s 750 mmHg 82%
    07:00 +28°C° 0 mm 2 m/s 751 mmHg 78%
    08:00 +30°C° 0 mm 3 m/s 751 mmHg 69%
    09:00 +31°C° 0 mm 3 m/s 751 mmHg 61%
    10:00 +34°C° 0 mm 3 m/s 751 mmHg 54%
    11:00 +34°C° 0 mm 3 m/s 750 mmHg 52%
    12:00 +35°C° 0 mm 4 m/s 749 mmHg 50%
    13:00 +36°C° 0 mm 4 m/s 749 mmHg 48%
    14:00 +34°C° 0 mm 4 m/s 748 mmHg 53%
    15:00 +33°C° 0 mm 4 m/s 748 mmHg 58%
    16:00 +32°C° 0 mm 4 m/s 747 mmHg 63%
    17:00 +30°C° 0 mm 4 m/s 748 mmHg 68%
    18:00 +29°C° 0 mm 4 m/s 748 mmHg 73%
    19:00 +28°C° 0 mm 4 m/s 748 mmHg 79%
    20:00 +27°C° 0 mm 3 m/s 749 mmHg 82%
    21:00 +27°C° 0 mm 3 m/s 749 mmHg 84%
    22:00 +27°C° 0 mm 3 m/s 750 mmHg 87%
    23:00 +27°C° 0 mm 3 m/s 750 mmHg 87%

    Demain, 15 Décembre, Dimanche

    Heure Température Précipitation Vent Pression Humidité
    00:00 +27°C° 0 mm 4 m/s 750 mmHg 86%
    01:00 +27°C° 0 mm 4 m/s 750 mmHg 85%
    02:00 +27°C° 0 mm 4 m/s 749 mmHg 86%
    03:00 +26°C° 0 mm 4 m/s 749 mmHg 87%
    04:00 +26°C° 0 mm 3 m/s 749 mmHg 88%
    05:00 +27°C° 0 mm 4 m/s 749 mmHg 84%
    06:00 +28°C° 0 mm 4 m/s 750 mmHg 80%
    07:00 +28°C° 0 mm 4 m/s 750 mmHg 76%
    08:00 +30°C° 0 mm 4 m/s 750 mmHg 70%
    09:00 +32°C° 0 mm 4 m/s 750 mmHg 63%
    10:00 +34°C° 0 mm 5 m/s 750 mmHg 56%
    11:00 +34°C° 0 mm 5 m/s 749 mmHg 55%
    12:00 +34°C° 0 mm 5 m/s 749 mmHg 54%
    13:00 +34°C° 0 mm 5 m/s 748 mmHg 52%
    14:00 +34°C° 0 mm 5 m/s 748 mmHg 55%
    15:00 +33°C° 0 mm 5 m/s 748 mmHg 57%
    16:00 +33°C° 0 mm 5 m/s 748 mmHg 60%
    17:00 +32°C° 0 mm 4 m/s 748 mmHg 66%
    18:00 +29°C° 0 mm 4 m/s 749 mmHg 71%
    19:00 +28°C° 0 mm 4 m/s 749 mmHg 77%
    20:00 +28°C° 0 mm 4 m/s 750 mmHg 79%
    21:00 +27°C° 0 mm 4 m/s 750 mmHg 82%
    22:00 +27°C° 0 mm 3 m/s 751 mmHg 84%
    23:00 +27°C° 0 mm 3 m/s 751 mmHg 85%

    Après-demain, 16 Décembre, Lundi

    Heure Température Précipitation Vent Pression Humidité
    00:00 +27°C° 0 mm 3 m/s 751 mmHg 85%
    01:00 +27°C° 0 mm 3 m/s 751 mmHg 86%
    02:00 +26°C° 0 mm 3 m/s 750 mmHg 87%
    03:00 +26°C° 0 mm 3 m/s 750 mmHg 88%
    04:00 +26°C° 0 mm 3 m/s 750 mmHg 89%
    05:00 +27°C° 0 mm 3 m/s 751 mmHg 84%
    06:00 +27°C° 0 mm 3 m/s 751 mmHg 80%
    07:00 +28°C° 0 mm 3 m/s 751 mmHg 76%
    08:00 +30°C° 0 mm 3 m/s 751 mmHg 67%
    09:00 +31°C° 0 mm 3 m/s 751 mmHg 59%
    10:00 +34°C° 0 mm 3 m/s 751 mmHg 50%
    11:00 +35°C° 0 mm 3 m/s 751 mmHg 47%
    12:00 +36°C° 0 mm 3 m/s 750 mmHg 43%
    13:00 +37°C° 0 mm 3 m/s 749 mmHg 40%
    14:00 +36°C° 0 mm 3 m/s 749 mmHg 41%
    15:00 +36°C° 0 mm 4 m/s 748 mmHg 43%
    16:00 +35°C° 0 mm 4 m/s 748 mmHg 45%
    17:00 +33°C° 0 mm 3 m/s 748 mmHg 54%
    18:00 +30°C° 0 mm 3 m/s 749 mmHg 64%
    19:00 +28°C° 0 mm 3 m/s 749 mmHg 73%
    20:00 +27°C° 0 mm 2 m/s 750 mmHg 77%
    21:00 +27°C° 0 mm 2 m/s 750 mmHg 81%
    22:00 +26°C° 0 mm 2 m/s 751 mmHg 85%
    23:00 +26°C° 0 mm 2 m/s 751 mmHg 87%

    17 Décembre, Mardi

    Heure Température Précipitation Vent Pression Humidité
    00:00 +26°C° 0 mm 3 m/s 750 mmHg 88%
    01:00 +26°C° 0 mm 3 m/s 750 mmHg 89%
    02:00 +25°C° 0 mm 3 m/s 750 mmHg 90%
    03:00 +25°C° 0 mm 3 m/s 749 mmHg 91%
    04:00 +25°C° 0 mm 2 m/s 749 mmHg 92%
    05:00 +26°C° 0 mm 2 m/s 750 mmHg 87%
    06:00 +27°C° 0 mm 2 m/s 750 mmHg 82%
    07:00 +28°C° 0 mm 2 m/s 751 mmHg 76%
    08:00 +30°C° 0 mm 2 m/s 751 mmHg 66%
    09:00 +32°C° 0 mm 2 m/s 751 mmHg 56%
    10:00 +35°C° 0 mm 2 m/s 752 mmHg 45%
    11:00 +35°C° 0 mm 3 m/s 751 mmHg 45%
    12:00 +36°C° 0 mm 4 m/s 751 mmHg 44%
    13:00 +36°C° 0 mm 4 m/s 750 mmHg 44%
    14:00 +35°C° 0 mm 4 m/s 750 mmHg 47%
    15:00 +34°C° 0 mm 4 m/s 749 mmHg 49%
    16:00 +34°C° 0 mm 4 m/s 749 mmHg 52%
    17:00 +32°C° 0 mm 4 m/s 750 mmHg 60%
    18:00 +29°C° 0 mm 4 m/s 750 mmHg 68%
    19:00 +28°C° 0 mm 4 m/s 751 mmHg 76%
    20:00 +27°C° 0 mm 4 m/s 752 mmHg 78%
    21:00 +27°C° 0 mm 4 m/s 752 mmHg 80%
    22:00 +27°C° 0 mm 4 m/s 753 mmHg 82%
    23:00 +26°C° 0 mm 4 m/s 752 mmHg 83%

    18 Décembre, Mercredi

    Heure Température Précipitation Vent Pression Humidité
    00:00 +26°C° 0 mm 4 m/s 752 mmHg 84%
    01:00 +26°C° 0 mm 4 m/s 752 mmHg 85%
    02:00 +26°C° 0 mm 4 m/s 752 mmHg 85%
    03:00 +26°C° 0 mm 3 m/s 751 mmHg 84%
    04:00 +26°C° 0 mm 3 m/s 751 mmHg 83%
    05:00 +27°C° 0.1 mm 3 m/s 752 mmHg 80%
    06:00 +27°C° 0.1 mm 3 m/s 752 mmHg 77%
    07:00 +28°C° 0.1 mm 3 m/s 753 mmHg 75%
    08:00 +29°C° 0.2 mm 4 m/s 753 mmHg 71%
    09:00 +30°C° 0.2 mm 5 m/s 753 mmHg 66%
    10:00 +32°C° 0.2 mm 6 m/s 753 mmHg 62%
    11:00 +33°C° 0.1 mm 6 m/s 753 mmHg 58%
    12:00 +33°C° 0.1 mm 7 m/s 752 mmHg 53%
    13:00 +34°C° 0.1 mm 7 m/s 752 mmHg 49%
    14:00 +33°C° 0 mm 7 m/s 751 mmHg 51%
    15:00 +33°C° 0 mm 7 m/s 751 mmHg 53%
    16:00 +32°C° 0 mm 8 m/s 750 mmHg 54%
    17:00 +30°C° 0 mm 7 m/s 751 mmHg 60%
    18:00 +28°C° 0 mm 7 m/s 751 mmHg 65%
    19:00 +27°C° 0 mm 6 m/s 752 mmHg 71%
    20:00 +27°C° 0 mm 6 m/s 752 mmHg 74%
    21:00 +26°C° 0 mm 6 m/s 752 mmHg 78%
    22:00 +24°C° 0 mm 6 m/s 753 mmHg 82%
    23:00 +25°C° 0 mm 5 m/s 753 mmHg 83%

    19 Décembre, Jeudi

    Heure Température Précipitation Vent Pression Humidité
    00:00 +23°C° 0 mm 5 m/s 752 mmHg 84%
    01:00 +23°C° 0 mm 5 m/s 752 mmHg 86%
    02:00 +22°C° 0 mm 4 m/s 752 mmHg 86%
    03:00 +22°C° 0 mm 4 m/s 752 mmHg 87%
    04:00 +22°C° 0 mm 4 m/s 751 mmHg 88%
    05:00 +23°C° 0 mm 4 m/s 752 mmHg 84%
    06:00 +23°C° 0 mm 4 m/s 752 mmHg 79%
    07:00 +25°C° 0 mm 4 m/s 753 mmHg 75%
    08:00 +27°C° 0 mm 4 m/s 753 mmHg 67%
    09:00 +30°C° 0 mm 4 m/s 753 mmHg 58%
    10:00 +33°C° 0 mm 5 m/s 753 mmHg 50%
    11:00 +33°C° 0 mm 5 m/s 752 mmHg 51%
    12:00 +33°C° 0 mm 6 m/s 752 mmHg 51%
    13:00 +33°C° 0 mm 6 m/s 751 mmHg 52%
    14:00 +33°C° 0 mm 7 m/s 751 mmHg 54%
    15:00 +33°C° 0 mm 7 m/s 751 mmHg 56%
    16:00 +32°C° 0 mm 7 m/s 750 mmHg 58%
    17:00 +30°C° 0 mm 6 m/s 751 mmHg 64%
    18:00 +29°C° 0 mm 6 m/s 751 mmHg 70%
    19:00 +27°C° 0 mm 6 m/s 752 mmHg 76%
    20:00 +27°C° 0 mm 5 m/s 752 mmHg 79%
    21:00 +26°C° 0 mm 5 m/s 753 mmHg 82%
    22:00 +26°C° 0 mm 5 m/s 753 mmHg 85%
    23:00 +26°C° 0 mm 5 m/s 753 mmHg 85%
    Voir plus